sat.trackr.live / text

‹ back to catalog

UNKNOWN

NORAD 89132

UNKNOWN UNKNOWN UNKNOWN

§ Identity

Operator
Country
Launch date
Launch site
Launch vehicle
Mass (kg)
RCS (m²)

External: N2YO · Heavens-Above

§ Orbital elements

Epoch: 2026-09-07T19:58:10.822080Z

Period
162.13 min
Inclination
63.4171°
Eccentricity
0.2915512
Mean motion
8.88160149 rev/d
Perigee alt
599.6 km
Apogee alt
6,342.8 km
Semi-major
9,849.4 km
B*
2.4672e-4
RAAN
97.2038°
Arg perigee
319.7959°
Mean anomaly
21.9505°
Rev number
34,900

§ Raw data

UNKNOWN1 89132U          26250.83206970  .00000149  00000+0  24672-3 0  99902 89132  63.4171  97.2038 2915512 319.7959  21.9505  8.88160149349007

JSON: /api/v1/satellites/89132 · /tle

For live sub-satellite position, see the globe view (requires WebGL).

§ Visibility from observer

Set your observer location to see the next 7 days of passes ≥ 10°. The values pass through the URL so the page stays shareable.

No JS? Fill the form by hand. The geolocation button needs JavaScript.